TimeCST,TemperatureF,Dew PointF,Humidity,Sea Level PressureIn,VisibilityMPH,Wind Direction,Wind SpeedMPH,Gust SpeedMPH,PrecipitationIn,Events,Conditions,WindDirDegrees,DateUTC
12:15 AM,35.6,32.0,87,30.17,2.5,Calm,Calm,-,N/A,,Overcast,0,2011-11-23 06:15:00
12:35 AM,37.4,33.8,87,30.17,2.5,Calm,Calm,-,N/A,,Overcast,0,2011-11-23 06:35:00
12:55 AM,37.4,33.8,87,30.18,3.0,SSW,4.6,-,N/A,,Overcast,210,2011-11-23 06:55:00
1:15 AM,37.4,33.8,87,30.17,3.0,South,3.5,-,N/A,,Overcast,180,2011-11-23 07:15:00
1:35 AM,37.4,33.8,87,30.17,3.0,Calm,Calm,-,N/A,,Haze,0,2011-11-23 07:35:00
1:55 AM,37.4,32.0,81,30.17,2.5,Calm,Calm,-,N/A,,Haze,0,2011-11-23 07:55:00
2:35 AM,33.8,30.2,87,30.17,1.8,South,3.5,-,N/A,,Overcast,180,2011-11-23 08:35:00
3:15 AM,35.6,33.8,93,30.17,3.0,SSW,3.5,-,N/A,,Overcast,210,2011-11-23 09:15:00
3:35 AM,37.4,33.8,87,30.17,3.0,South,9.2,-,N/A,,Overcast,190,2011-11-23 09:35:00
3:55 AM,37.4,33.8,87,30.18,3.0,SSW,4.6,-,N/A,,Overcast,210,2011-11-23 09:55:00
4:15 AM,37.4,33.8,87,30.17,4.0,South,8.1,-,N/A,,Haze,180,2011-11-23 10:15:00
4:35 AM,37.4,33.8,87,30.17,4.0,SSW,9.2,-,N/A,,Overcast,200,2011-11-23 10:35:00
5:15 AM,37.4,33.8,87,30.17,3.0,South,6.9,-,N/A,,Overcast,170,2011-11-23 11:15:00
5:35 AM,35.6,33.8,93,30.18,2.5,South,10.4,-,N/A,,Overcast,190,2011-11-23 11:35:00
5:55 AM,35.6,33.8,93,30.18,2.0,South,8.1,-,N/A,,Overcast,190,2011-11-23 11:55:00
6:15 AM,35.6,33.8,93,30.18,1.2,South,8.1,-,N/A,,Overcast,190,2011-11-23 12:15:00
6:35 AM,35.6,33.8,93,30.18,0.8,South,5.8,-,N/A,,Overcast,190,2011-11-23 12:35:00
6:55 AM,35.6,33.8,93,30.19,0.8,South,6.9,-,N/A,,Overcast,170,2011-11-23 12:55:00
7:15 AM,35.6,33.8,93,30.20,0.8,SSW,9.2,-,N/A,,Overcast,200,2011-11-23 13:15:00
7:35 AM,35.6,33.8,93,30.21,0.8,SSW,8.1,-,N/A,,Overcast,200,2011-11-23 13:35:00
7:55 AM,35.6,32.0,87,30.21,0.2,South,8.1,-,N/A,Fog,Fog,180,2011-11-23 13:55:00
8:15 AM,35.6,33.8,93,30.21,0.2,South,6.9,-,N/A,Fog,Fog,180,2011-11-23 14:15:00
8:35 AM,35.6,33.8,93,30.21,0.5,South,8.1,-,N/A,Fog,Fog,170,2011-11-23 14:35:00
8:55 AM,35.6,33.8,93,30.20,0.5,South,9.2,-,N/A,Fog,Fog,170,2011-11-23 14:55:00
9:15 AM,35.6,33.8,93,30.20,0.5,South,8.1,-,N/A,Fog,Fog,170,2011-11-23 15:15:00
9:35 AM,37.4,33.8,87,30.20,0.8,South,10.4,-,N/A,,Overcast,180,2011-11-23 15:35:00
9:55 AM,37.4,33.8,87,30.21,1.0,SSE,10.4,-,N/A,,Overcast,160,2011-11-23 15:55:00
10:15 AM,37.4,35.6,93,30.21,1.5,South,10.4,-,N/A,,Overcast,180,2011-11-23 16:15:00
10:35 AM,37.4,35.6,93,30.21,1.0,SSE,11.5,-,N/A,,Overcast,160,2011-11-23 16:35:00
10:55 AM,37.4,35.6,93,30.21,2.0,South,11.5,-,N/A,,Overcast,170,2011-11-23 16:55:00
11:15 AM,37.4,35.6,93,30.20,3.0,South,12.7,-,N/A,,Overcast,170,2011-11-23 17:15:00
11:35 AM,39.2,35.6,87,30.21,3.0,South,10.4,-,N/A,,Overcast,180,2011-11-23 17:35:00
11:55 AM,39.2,37.4,93,30.20,3.0,South,10.4,-,N/A,,Overcast,180,2011-11-23 17:55:00
12:15 PM,41.0,37.4,87,30.19,4.0,South,8.1,-,N/A,,Overcast,180,2011-11-23 18:15:00
12:35 PM,42.8,37.4,81,30.18,4.0,South,8.1,-,N/A,,Haze,190,2011-11-23 18:35:00
1:15 PM,46.4,39.2,76,30.17,5.0,SSE,6.9,-,N/A,,Haze,150,2011-11-23 19:15:00
1:35 PM,46.4,39.2,76,30.17,5.0,South,8.1,-,N/A,,Haze,170,2011-11-23 19:35:00
1:55 PM,48.2,39.2,71,30.16,5.0,SSE,8.1,-,N/A,,Haze,160,2011-11-23 19:55:00
2:15 PM,48.2,39.2,71,30.16,7.0,South,6.9,-,N/A,,Clear,170,2011-11-23 20:15:00
2:35 PM,50.0,39.2,66,30.15,7.0,SSE,9.2,-,N/A,,Clear,160,2011-11-23 20:35:00
2:55 PM,50.0,39.2,66,30.15,7.0,South,6.9,-,N/A,,Clear,170,2011-11-23 20:55:00
3:15 PM,51.8,39.2,62,30.15,10.0,South,5.8,-,N/A,,Clear,190,2011-11-23 21:15:00
3:35 PM,51.8,39.2,62,30.14,10.0,South,8.1,-,N/A,,Clear,180,2011-11-23 21:35:00
3:55 PM,51.8,39.2,62,30.13,10.0,South,8.1,-,N/A,,Clear,170,2011-11-23 21:55:00
4:15 PM,50.0,39.2,66,30.14,10.0,South,5.8,-,N/A,,Clear,170,2011-11-23 22:15:00
4:35 PM,48.2,39.2,71,30.14,10.0,South,5.8,-,N/A,,Clear,170,2011-11-23 22:35:00
4:55 PM,46.4,37.4,71,30.14,10.0,Calm,Calm,-,N/A,,Clear,0,2011-11-23 22:55:00
5:15 PM,42.8,35.6,76,30.14,10.0,SE,5.8,-,N/A,,Scattered Clouds,140,2011-11-23 23:15:00
5:35 PM,42.8,35.6,76,30.14,7.0,SE,3.5,-,N/A,,Clear,130,2011-11-23 23:35:00
5:55 PM,41.0,35.6,81,30.15,7.0,Calm,Calm,-,N/A,,Scattered Clouds,0,2011-11-23 23:55:00
6:15 PM,39.2,35.6,87,30.15,7.0,SE,3.5,-,N/A,,Scattered Clouds,140,2011-11-24 00:15:00
6:55 PM,35.6,32.0,87,30.14,5.0,Calm,Calm,-,N/A,,Scattered Clouds,0,2011-11-24 00:55:00
7:15 PM,39.2,33.8,81,30.14,5.0,SSE,8.1,-,N/A,,Haze,160,2011-11-24 01:15:00
7:35 PM,39.2,33.8,81,30.14,5.0,SSE,3.5,-,N/A,,Haze,160,2011-11-24 01:35:00
7:55 PM,39.2,33.8,81,30.14,5.0,SSE,6.9,-,N/A,,Haze,160,2011-11-24 01:55:00
8:35 PM,37.4,33.8,87,30.14,5.0,SSE,5.8,-,N/A,,Scattered Clouds,150,2011-11-24 02:35:00
8:55 PM,39.2,35.6,87,30.13,5.0,SSE,8.1,-,N/A,,Scattered Clouds,150,2011-11-24 02:55:00
9:15 PM,39.2,33.8,81,30.13,5.0,Calm,Calm,-,N/A,,Haze,0,2011-11-24 03:15:00
9:35 PM,39.2,35.6,87,30.13,7.0,Calm,Calm,-,N/A,,Scattered Clouds,0,2011-11-24 03:35:00
9:55 PM,41.0,35.6,81,30.13,7.0,SSE,3.5,-,N/A,,Clear,160,2011-11-24 03:55:00
10:15 PM,41.0,35.6,81,30.13,7.0,South,4.6,-,N/A,,Clear,170,2011-11-24 04:15:00
10:55 PM,39.2,33.8,81,30.13,7.0,South,3.5,-,N/A,,Scattered Clouds,170,2011-11-24 04:55:00
11:15 PM,37.4,33.8,87,30.12,7.0,Calm,Calm,-,N/A,,Clear,0,2011-11-24 05:15:00
11:35 PM,37.4,33.8,87,30.13,5.0,Calm,Calm,-,N/A,,Scattered Clouds,0,2011-11-24 05:35:00
11:55 PM,39.2,33.8,81,30.12,7.0,South,3.5,-,N/A,,Scattered Clouds,180,2011-11-24 05:55:00